Weather in Grishkino

Russia / Tomsk District     58°02′19″N   82°39′15″E
temp.,
°C
wind,
m/s
gust,
m/s
humid.,
%
clouds,
%
prec.,
mm/h
press.,
hPa
HPBL,
m
17 april, sat
sat1701:00−5n487997 0.1 1021742
04:00−7n367883 0.0 1023837
07:00−7n247265 0.1 1025629
10:00−4wnw22545 0.0 1025793
13:00−1wsw344047 0.0 10241111
16:00+2wsw463765 0.0 10221577
19:00+2sw47465 0.0 10211470
22:00−1sw4126789 0.0 1020522
18 april, sun
sun1801:00−2ssw51271100 0.0 1017629
04:00−1ssw61471100 0.0 1013779
07:00−2ssw71589100 0.3 1009920
10:00+1sw51087100 1.1 1007934
13:00+2ssw4685100 1.3 1006708
16:00+2sse2499100 1.4 1003206
19:000ene24100100 6.6 1000124
22:00−3nne61396100 7.3 1000933
19 april, mon
mon1901:00−6n91693100 12.4 10031190
04:00−9nnw91686100 2.4 1008990
07:00−12nw81582100 2.4 1014870
10:00−11nw7128099 0.0 1018855
13:00−8nw696786 0.0 10221186
16:00−6nw686277 0.0 10241479
19:00−7nw496816 0.0 10251414
22:00−10wnw388695 0.0 1027219
20 april, tue
tue2001:00−12w28945 0.0 1028148
04:00−13w269635 0.0 1028103
07:00−12wsw279646 0.0 1028193
10:00−7w4675100 0.0 10271018
13:00−4wsw4663100 0.1 10251691
16:00−3wsw4766100 0.1 10221561
19:00−3sw4978100 0.2 10201155
22:00−4s41094100 0.3 1018756
21 april, wed
wed2101:00−4s41195100 1.0 1016691
04:00−4sse41095100 0.8 1014567
07:00−4ese3895100 1.3 1014476
10:00−2e4789100 0.4 1016710
13:00−1ene5889100 0.9 1019981
16:000ene5985100 0.8 10221136
19:000ene598088 1.2 10261095
22:00−2ne4118539 0.0 1031547